Location: Litvinovka
(48.6667°N, 34.3500°E)
Time: 18:52:38
(UTC+00:00)

Cosmos 1943 Rocket - Pass Details

Date: 18 September 2020
Orbit: 814 x 842 km, 71.0° (Epoch: 22 October)

Event Time Altitude Azimuth Distance (km) Brightness Sun altitude
Exits shadow 22:35:46 25° 352° (N) 1,643 4.1 -38.3°
Drops below altitude 10° 22:38:33 10° 15° (NNE) 2,443 5.3 -38.2°
Sets 22:41:15 0° 25° (NNE) 3,375 6.3 -38.0°
